Погода в Валентине

Россия / Приморский край     43°07′17″N   134°18′21″E
темп.,
°C
ветер,
м/с
пор.,
м/с
влажн.,
%
обл.,
%
осадки,
мм/ч
давл.,
гПа
погр.,
м
15 апреля, чт
чт1501:00+2зюз56660 0.0 1014105
04:00+2зюз46710 0.0 1014100
07:00+2зсз22641 0.0 101626
10:00+4юз22561 0.0 1016210
13:00+5ююз79685 0.0 1016381
16:00+6юз7964100 0.0 1016262
19:00+5юз4578100 0.0 101755
22:00+4юз3380100 0.0 101824
16 апреля, пт
пт1601:00+4юз4486100 0.0 101843
04:00+4юз349299 0.0 101878
07:00+4юз2293100 0.0 101818
10:00+4вюв1387100 0.0 1018143
13:00+4всв349099 0.0 1016187
16:00+3св449799 0.1 1013111
19:00+4ссв339998 0.4 101259
22:00+4ссв2399100 1.1 101152
17 апреля, сб
сб1701:00+4вюв1110099 1.1 101028
04:00+4юз449863 1.1 100951
07:00+3зюз349343 0.0 101194
10:00+6юз3474100 0.0 1011159
13:00+5ююз68867 0.0 1011184
16:00+5ю46840 0.0 1010193
19:00+4ю129110 0.0 100938
22:00+4ссв3486100 0.0 100835
18 апреля, вс
вс1801:00+4св4584100 0.0 100656
04:00+5с3478100 0.0 100427
07:00+4ююз2283100 0.0 100416
10:00+5вюв228149 0.0 1003186
13:00+6ю1476100 0.0 1002276
16:00+9зсз5765100 0.0 1000216
19:00+9зсз476172 0.0 1001259
22:00+7всв2467100 0.0 100342
19 апреля, пн
пн1901:00+7зсз34635 0.0 100433
04:00+6з33705 0.0 100519
07:00+6зсз337113 0.0 100620
10:00+9з34580 0.0 1006287
13:00+11сз35480 0.0 1005329
16:00+12сз24460 0.0 1005348
19:00+12ссз55460 0.0 100751
22:00+9зсз33580 0.0 100913